Regional Weather Roundup
Issued by NWS Raleigh/Durham, NC

Home | Current Version | Previous Version | Text Only | Print | Product List | Glossary On
Versions: 1 2 3 4 5 6 7 8 9 10 11 12 13 14 15 16 17 18 19 20 21 22 23 24 25 26 27
000
ASUS42 KRAH 201510
RWRRAH
NORTH CAROLINA WEATHER ROUNDUP
NATIONAL WEATHER SERVICE RALEIGH NC
1000 AM EST MON FEB 20 2017

NOTE: "FAIR" INDICATES FEW OR NO CLOUDS BELOW 12,000 FEET WITH NO
SIGNIFICANT WEATHER AND/OR OBSTRUCTIONS TO VISIBILITY.

NCZ001-053-055-056-065-067-201600-
WESTERN NORTH CAROLINA

CITY           SKY/WX    TMP DP  RH WIND       PRES   REMARKS
ASHEVILLE      SUNNY     49  38  65 VRB3      30.26F
JEFFERSON      SUNNY     50  39  67 CALM      30.27S
MORGANTON      SUNNY     55  42  63 CALM      30.29F
HICKORY        SUNNY     56  42  59 CALM      30.24S
RUTHERFORDTON  NOT AVBL
MOUNT AIRY     SUNNY     60  45  56 CALM      30.27S
BOONE          SUNNY     49  33  55 CALM      30.27F
$$

NCZ021-022-025-041-071-084-088-201600-
CENTRAL NORTH CAROLINA

CITY           SKY/WX    TMP DP  RH WIND       PRES   REMARKS
CHARLOTTE      MOSUNNY   63  42  46 NE6       30.24F
GREENSBORO     MOSUNNY   61  42  49 CALM      30.24R
WINSTON-SALEM  SUNNY     62  38  40 CALM      30.26R
RALEIGH-DURHAM MOSUNNY   61  40  45 NE8       30.23S
FORT BRAGG     SUNNY     62  40  44 NE9       30.21R
FAYETTEVILLE   SUNNY     63  43  48 NE8       30.21S
BURLINGTON     SUNNY     64  39  39 N6        30.24R
LAURINBURG     SUNNY     62  44  51 E10       30.22S
$$

NCZ011-015-027-028-043-044-047-080-103-201600-
NORTHEASTERN NORTH CAROLINA

CITY           SKY/WX    TMP DP  RH WIND       PRES   REMARKS
ROCKY MT-WILSO SUNNY     62  41  46 NE8       30.23S
GREENVILLE     SUNNY     64  43  45 NE9       30.23R
WASHINGTON     SUNNY     61  43  52 N8        30.22R
ELIZABETH CITY SUNNY     61  43  51 N13       30.21R
MANTEO         SUNNY     57  44  62 NE15G22   30.20R
CAPE HATTERAS  SUNNY     59  46  62 VRB6G18   30.18R HAZE
$$

NCZ078-087-090-091-093-098-101-201600-
SOUTHEASTERN NORTH CAROLINA

CITY           SKY/WX    TMP DP  RH WIND       PRES   REMARKS
LUMBERTON      MOSUNNY   61  44  53 VRB5      30.21R
GOLDSBORO      SUNNY     62  41  46 NE12      30.19F
KINSTON        SUNNY     63  43  48 NE8       30.22S
KENANSVILLE    NOT AVBL
NEW BERN       SUNNY     62  46  55 N8        30.22R
CHERRY POINT   SUNNY     64  44  48 NE14      30.21R
BEAUFORT       SUNNY     65  46  50 NE12      30.20R
JACKSONVILLE   SUNNY     62  46  55 NE8       30.20R
WILMINGTON     SUNNY     64  45  49 NE7       30.19F
$$





USA.gov is the U.S. government's official web portal to all federal, state and local government web resources and services.